This is the latest recevied weather packets stored in our database for station/object KR4CWL-13. If no packets are shown the sender has not sent any weather packets the latest 10 day(s).
| Time | Temp. | Humidity | Pressure | Rain* | Wind** | Luminosity | Snow |
|---|---|---|---|---|---|---|---|
| 1777823042 | 17.78° C | 34% | 1012.5 hPa | 0 mm | - | - | - |
| 1777822442 | 17.78° C | 36% | 1012.5 hPa | 0 mm | - | - | - |
| 1777821842 | 17.22° C | 36% | 1012.5 hPa | 0 mm | - | - | - |
| 1777821242 | 16.67° C | 37% | 1012.5 hPa | 0 mm | - | - | - |
| 1777820642 | 16.67° C | 38% | 1012.5 hPa | 0 mm | - | - | - |
| 1777820042 | 16.67° C | 40% | 1012.5 hPa | 0 mm | - | - | - |
| 1777819442 | 16.11° C | 41% | 1012.5 hPa | 0 mm | - | - | - |
| 1777818842 | 16.11° C | 43% | 1012.5 hPa | 0 mm | - | - | - |
| 1777818242 | 15.56° C | 43% | 1012.5 hPa | 0 mm | - | - | - |
| 1777817642 | 15° C | 44% | 1012.5 hPa | 0 mm | - | - | - |
| 1777817042 | 15° C | 43% | 1012.5 hPa | 0 mm | - | - | - |
| 1777816442 | 14.44° C | 46% | 1012.5 hPa | 0 mm | - | - | - |
| 1777815842 | 14.44° C | 48% | 1012.2 hPa | 0 mm | - | - | - |
| 1777815242 | 14.44° C | 50% | 1012.2 hPa | 0 mm | - | - | - |
| 1777814641 | 14.44° C | 51% | 1012.2 hPa | 0 mm | - | - | - |
| 1777814041 | 13.33° C | 52% | 1012.2 hPa | 0 mm | - | - | - |
| 1777813442 | 12.78° C | 57% | 1012.2 hPa | 0 mm | - | - | - |
| 1777812841 | 12.22° C | 61% | 1012.2 hPa | 0 mm | - | - | - |
| 1777812241 | 11.11° C | 63% | 1012.2 hPa | 0 mm | - | - | - |
| 1777811641 | 10.56° C | 66% | 1012.2 hPa | 0 mm | - | - | - |
| 1777811041 | 9.44° C | 69% | 1012.2 hPa | 0 mm | - | - | - |
| 1777810441 | 8.89° C | 71% | 1012.2 hPa | 0 mm | - | - | - |
| 1777809841 | 8.33° C | 72% | 1012.2 hPa | 0 mm | - | - | - |
| 1777809241 | 7.78° C | 75% | 1012.2 hPa | 0 mm | - | - | - |
| 1777808641 | 7.22° C | 77% | 1011.8 hPa | 0 mm | - | - | - |
* Rain since midnight (hover to see other rain measurements)
** Current wind speed in m/s (hover to see current wind gust speed)